sat.trackr.live / text

‹ back to catalog

STARLINK-35443

NORAD 66339 · 2025-253W

PAYLOAD ACTIVE UNKNOWN

§ Identity

Operator
Country
US
Launch date
2025-11-06
Launch site
AFETR
Launch vehicle
Mass (kg)
RCS (m²)

Purposes: comms

External: N2YO · Heavens-Above · Gunter

§ Orbital elements

Epoch: 2026-09-20T12:49:57.446688Z

Period
94.27 min
Inclination
43.0008°
Eccentricity
0.0000920
Mean motion
15.27585330 rev/d
Perigee alt
482.4 km
Apogee alt
483.7 km
Semi-major
6,861.2 km
B*
4.7358e-4
RAAN
192.1096°
Arg perigee
283.5260°
Mean anomaly
76.5489°
Rev number
5,004

§ Raw data

STARLINK-354431 66339U 25253W   26263.53469267  .00012794  00000+0  47358-3 0  99972 66339  43.0008 192.1096 0000920 283.5260  76.5489 15.27585330 50046

JSON: /api/v1/satellites/66339 · /tle

For live sub-satellite position, see the globe view (requires WebGL).

§ Visibility from observer

Set your observer location to see the next 7 days of passes ≥ 10°. The values pass through the URL so the page stays shareable.

No JS? Fill the form by hand. The geolocation button needs JavaScript.